DW7733 Weather Reports


Display with metric or nautical units.
time (UTC)temp
F
wind
direction
speed
MPH
gust
MPH
rain 1hr
in
rain 24hr
in
rain mn
in
humidity
%
barometer
mb
20260508141556 45 259 8.0 10.0 0.00 0.00 0.00 75 1012.0
20260508140051 45 259 7.0 9.0 0.00 0.00 0.00 79 1011.9
20260508134547 45 252 8.0 11.0 0.00 0.00 0.00 79 1012.0
20260508133048 45 259 6.0 8.0 0.00 0.00 0.00 77 1012.0
20260508131546 45 248 8.0 9.0 0.00 0.00 0.00 79 1011.9
20260508130045 45 252 7.0 9.0 0.00 0.00 0.00 79 1011.8
20260508124544 45 239 6.0 8.0 0.00 0.00 0.00 76 1011.7
20260508123047 44 270 5.0 7.0 0.00 0.00 0.00 78 1011.4
20260508121546 44 234 3.0 5.0 0.00 0.00 0.00 86 1011.4
20260508120042 43 249 3.0 5.0 0.00 0.00 0.00 85 1011.3
20260508114541 41 232 1.0 2.0 0.00 0.00 0.00 86 1011.2
20260508113041 40 143 0.0 1.0 0.00 0.00 0.00 86 1011.3
20260508111542 39 118 0.0 2.0 0.00 0.00 0.00 88 1011.1
20260508110038 39 136 1.0 5.0 0.00 0.00 0.00 87 1011.1
20260508104537 39 141 0.0 2.0 0.00 0.00 0.00 87 1011.0
20260508103042 40 125 1.0 4.0 0.00 0.00 0.00 84 1011.0
20260508101532 41 160 3.0 6.0 0.00 0.00 0.00 85 1011.0
20260508100039 40 245 2.0 6.0 0.00 0.00 0.00 86 1010.9
20260508094528 40 232 1.0 6.0 0.00 0.00 0.00 86 1011.0
20260508093033 41 162 0.0 6.0 0.00 0.00 0.00 83 1011.0
20260508091523 42 203 0.0 8.0 0.00 0.00 0.00 81 1011.1
20260508090025 43 217 2.0 7.0 0.00 0.00 0.00 80 1011.2
20260508084521 42 194 2.0 8.0 0.00 0.00 0.00 79 1011.1
20260508083019 42 198 3.0 7.0 0.00 0.00 0.00 82 1011.0
20260508081517 41 144 0.0 1.0 0.00 0.00 0.00 85 1010.9
20260508080019 42 190 0.0 1.0 0.00 0.00 0.00 85 1010.8
20260508074514 42 190 0.0 1.0 0.00 0.00 0.00 84 1010.8
20260508073013 43 191 0.0 1.0 0.00 0.00 0.00 82 1010.8
20260508071514 44 155 0.0 1.0 0.00 0.00 0.00 82 1010.9
20260508070008 45 226 4.0 9.0 0.00 0.00 0.00 78 1011.1
20260508064507 45 252 8.0 11.0 0.00 0.00 0.00 77 1011.3
20260508063005 45 255 11.0 12.0 0.00 0.00 0.00 77 1011.7
20260508061504 45 257 13.0 18.0 0.00 0.00 0.00 76 1011.7
20260508060001 45 276 10.0 18.0 0.00 0.00 0.00 74 1011.7
20260508054642 43 245 0.0 5.0 0.00 0.00 0.00 78 1011.8
20260508053058 42 134 0.0 1.0 0.00 0.00 0.00 80 1011.5
20260508051555 43 156 0.0 1.0 0.00 0.00 0.00 78 1011.9
20260508050054 44 146 0.0 1.0 0.00 0.00 0.00 78 1011.9
20260508044553 46 189 2.0 9.0 0.00 0.00 0.00 73 1011.8
20260508043057 46 266 7.0 9.0 0.00 0.00 0.00 72 1011.9
20260508041551 45 252 9.0 10.0 0.00 0.00 0.00 75 1011.9
20260508040043 43 195 2.0 9.0 0.00 0.00 0.00 71 1012.0
20260508034549 40 173 0.0 3.0 0.00 0.00 0.00 78 1012.2
20260508033042 40 136 0.0 0.0 0.00 0.00 0.00 81 1012.1
20260508031543 39 135 0.0 0.0 0.00 0.00 0.00 80 1011.9
20260508030044 39 134 0.0 0.0 0.00 0.00 0.00 79 1011.9
20260508024544 39 134 0.0 0.0 0.00 0.00 0.00 80 1012.0
20260508023041 39 134 0.0 0.0 0.00 0.00 0.00 80 1011.9
20260508021541 39 134 0.0 0.0 0.00 0.00 0.00 78 1011.9
20260508020045 39 134 0.0 0.0 0.00 0.00 0.00 79 1011.9
20260508014540 40 134 0.0 0.0 0.00 0.00 0.00 77 1011.9
20260508013039 40 132 0.0 0.0 0.00 0.00 0.00 76 1011.7
20260508011539 41 132 0.0 0.0 0.00 0.00 0.00 73 1011.4
20260508010047 42 132 0.0 1.0 0.00 0.00 0.00 72 1011.3
20260508004537 44 122 0.0 2.0 0.00 0.00 0.00 68 1011.3
20260508003039 45 129 0.0 4.0 0.00 0.00 0.00 66 1011.3
20260508001536 46 43 4.0 6.0 0.00 0.00 0.00 66 1011.3
20260508000035 45 16 5.0 6.0 0.00 0.00 0.00 62 1011.3
20260507234535 46 33 6.0 8.0 0.00 0.00 0.00 61 1011.4
20260507233034 46 28 6.0 8.0 0.00 0.00 0.00 64 1011.2
20260507231541 46 29 7.0 9.0 0.00 0.00 0.00 61 1011.3
20260507230039 46 23 8.0 9.0 0.00 0.00 0.00 63 1011.2
20260507224532 46 33 7.0 8.0 0.00 0.00 0.00 62 1011.4
20260507223029 46 33 8.0 10.0 0.00 0.00 0.00 69 1011.4
20260507221529 46 19 9.0 10.0 0.00 0.00 0.00 67 1011.4
20260507220026 45 20 9.0 11.0 0.00 0.00 0.00 70 1011.4
20260507214524 45 18 7.0 9.0 0.00 0.00 0.00 73 1011.5
20260507213024 45 13 8.0 10.0 0.00 0.00 0.00 74 1011.3
20260507211534 45 19 9.0 11.0 0.00 0.00 0.00 73 1011.3
20260507210022 45 15 9.0 11.0 0.00 0.00 0.00 74 1011.4
20260507204523 45 15 10.0 11.0 0.00 0.00 0.00 74 1011.2
20260507203027 44 16 10.0 11.0 0.00 0.00 0.00 74 1011.2
20260507201520 44 13 10.0 14.0 0.00 0.00 0.00 75 1011.2
20260507200021 44 22 10.0 12.0 0.00 0.00 0.00 73 1011.3
20260507194518 44 28 11.0 12.0 0.00 0.00 0.00 77 1011.3
20260507193015 44 21 12.0 14.0 0.00 0.00 0.00 79 1011.5
20260507191515 44 13 12.0 14.0 0.00 0.00 0.00 78 1011.7
20260507190018 44 9 9.0 12.0 0.00 0.00 0.00 79 1011.6
20260507184514 44 1 10.0 12.0 0.00 0.00 0.00 75 1011.6
20260507183033 44 16 10.0 12.0 0.00 0.00 0.00 77 1011.6
20260507181513 44 358 8.0 10.0 0.00 0.00 0.00 74 1011.6
20260507180012 44 359 9.0 11.0 0.00 0.00 0.00 77 1011.7
20260507174512 45 1 6.0 7.0 0.00 0.00 0.00 74 1011.6
20260507173008 45 9 4.0 6.0 0.00 0.00 0.00 73 1011.8
20260507171507 45 26 6.0 7.0 0.00 0.00 0.00 75 1011.9
20260507170005 45 353 6.0 8.0 0.00 0.00 0.00 78 1012.1
20260507164506 44 358 6.0 7.0 0.00 0.00 0.00 76 1012.3
20260507163005 44 354 4.0 6.0 0.00 0.00 0.00 76 1012.3
20260507161505 44 5 5.0 6.0 0.00 0.00 0.00 76 1012.5
20260507160009 44 341 4.0 6.0 0.00 0.00 0.00 77 1012.5
20260507154503 44 359 3.0 6.0 0.00 0.00 0.00 79 1012.5
20260507153004 44 11 4.0 6.0 0.00 0.00 0.00 81 1012.5
20260507151503 44 347 4.0 5.0 0.00 0.00 0.00 80 1012.4
20260507150003 43 4 3.0 5.0 0.00 0.00 0.00 81 1012.4
20260507144600 43 353 3.0 4.0 0.00 0.00 0.00 82 1012.5
20260507143059 43 360 3.0 6.0 0.00 0.00 0.00 82 1012.5